Location: *
(51.8167°N, 12.5000°E)
Time: 13:05:55
(UTC+00:00)

CZ-4 R/B - Pass Details

Date: 16 September 2019
Orbit: 532 x 598 km, 97.8° (Epoch: 16 October)

Event Time Altitude Azimuth Distance (km) Brightness Sun altitude
Rises 18:07:14 0° 195° (SSW) 2,674 4.9 -7.5°
Reaches altitude 10° 18:09:36 10° 209° (SSW) 1,795 4.1 -7.9°
Maximum altitude 18:12:51 25° 266° (W) 1,117 3.9 -8.4°
Drops below altitude 10° 18:16:10 10° 323° (NW) 1,832 4.8 -8.9°
Sets 18:18:36 0° 337° (NNW) 2,744 5.5 -9.2°
